Weather History for KANK - February, 2013

Change the Weather History Date:

Saturday, February 16, 2013

  Actual Average (KGUC) Record (KGUC)
Temperature  
Mean Temperature 36 °F -  
Max Temperature 49 °F 28 °F 44 °F (2014)
Min Temperature 22 °F 5 °F -11 °F (2001)
Degree Days  
Heating Degree Days 30    
Moisture  
Dew Point 5 °F    
Average Humidity 30    
Maximum Humidity 51    
Minimum Humidity 17    
Precipitation  
Precipitation 0.00 in - - ()
Sea Level Pressure  
Sea Level Pressure 30.28 in    
Wind  
Wind Speed 12 mph (West)    
Max Wind Speed 23 mph    
Max Gust Speed 34 mph    
Visibility 10 miles    
Events      
Averages and records for this station are not official NWS values.
T = Trace of Precipitation, MM = Missing Value Source: NWS Daily Summary

Daily Weather History Graph

Daily Weather History Graph

Search for Another Location

Airport or City:

Trip Planner

Search our weather history database for the weather conditions in past years. The results will help you decide how hot, cold, wet, or windy it might be!

Date:

Astronomy

Feb. 16, 2013 Rise Set
Actual Time 6:53 AM MST 5:43 PM MST
Civil Twilight 6:26 AM MST 6:10 PM MST
Nautical Twilight 5:55 AM MST 6:41 PM MST
Astronomical Twilight 5:24 AM MST 7:12 PM MST
Moon 10:13 AM MST (2/16) No Moon Set
Length of Visible Light 11h 44m
Length of Day
10h 50m
Waxing Crescent, 40% of the Moon is Illuminated
Feb 16
Waxing Crescent
Feb 17
First Quarter
Feb 25
Full
Mar 4
Last Quarter
Mar 11
New

Hourly Weather History & Observations

Time (MST) Temp. Windchill Dew Point Humidity Pressure Visibility Wind Dir Wind Speed Gust Speed Precip Events Conditions
12:15 AM 25.7 °F 15.7 °F 6.4 °F 44% 30.37 in 10.0 mi NNW 10.4 mph - N/A   Clear
12:35 AM 25.3 °F 19.7 °F 5.9 °F 44% 30.38 in 10.0 mi NNW 4.6 mph - N/A   Clear
12:55 AM 22.1 °F 13.7 °F 5.9 °F 50% 30.37 in 10.0 mi West 6.9 mph - N/A   Clear
1:15 AM 22.6 °F 15.3 °F 5.9 °F 49% 30.37 in 10.0 mi NNW 5.8 mph - N/A   Clear
1:35 AM 25.5 °F 17.8 °F 5.9 °F 43% 30.37 in 10.0 mi NW 6.9 mph - N/A   Clear
1:55 AM 25.7 °F 15.7 °F 6.4 °F 44% 30.37 in 10.0 mi NNW 10.4 mph - N/A   Clear
2:15 AM 27.1 °F 15.9 °F 5.9 °F 41% 30.37 in 10.0 mi NW 13.8 mph - N/A   Clear
2:35 AM 27.0 °F 21.6 °F 6.8 °F 43% 30.37 in 10.0 mi WNW 4.6 mph - N/A   Clear
2:55 AM 25.5 °F 16.2 °F 6.8 °F 45% 30.37 in 10.0 mi NNW 9.2 mph - N/A   Clear
3:15 AM 25.5 °F 15.5 °F 7.3 °F 46% 30.37 in 10.0 mi NNW 10.4 mph - N/A   Clear
3:35 AM 27.0 °F 19.5 °F 6.4 °F 42% 30.37 in 10.0 mi NNW 6.9 mph - N/A   Clear
3:55 AM 26.6 °F 19.1 °F 5.9 °F 41% 30.36 in 10.0 mi NNW 6.9 mph - N/A   Clear
4:15 AM 25.0 °F 16.3 °F 5.5 °F 44% 30.36 in 10.0 mi NNW 8.1 mph - N/A   Clear
4:35 AM 26.1 °F 19.4 °F 5.2 °F 41% 30.37 in 10.0 mi NNW 5.8 mph - N/A   Clear
4:55 AM 26.8 °F 15.4 °F 5.5 °F 40% 30.35 in 10.0 mi West 13.8 mph - N/A   Clear
5:15 AM 29.5 °F 19.9 °F 4.6 °F 35% 30.37 in 10.0 mi West 11.5 mph 18.4 mph N/A   Clear
5:35 AM 27.9 °F 20.6 °F 5.0 °F 38% 30.35 in 10.0 mi West 6.9 mph - N/A   Clear
5:55 AM 22.1 °F 10.0 °F 6.1 °F 50% 30.35 in 10.0 mi North 12.7 mph 16.1 mph N/A   Clear
6:15 AM 23.7 °F 12.6 °F 5.9 °F 47% 30.35 in 10.0 mi North 11.5 mph 18.4 mph N/A   Clear
6:35 AM 23.4 °F 8.8 °F 5.9 °F 47% 30.35 in 10.0 mi North 19.6 mph - N/A   Clear
6:55 AM 22.1 °F 9.5 °F 6.3 °F 51% 30.36 in 10.0 mi North 13.8 mph 19.6 mph N/A   Clear
7:15 AM 22.8 °F 12.9 °F 5.9 °F 48% 30.37 in 10.0 mi NNW 9.2 mph - N/A   Clear
7:35 AM 25.7 °F 15.7 °F 6.1 °F 43% 30.39 in 10.0 mi North 10.4 mph - N/A   Clear
7:55 AM 28.4 °F 22.2 °F 5.7 °F 38% 30.39 in 10.0 mi NW 5.8 mph - N/A   Clear
8:15 AM 30.7 °F 24.1 °F 5.9 °F 35% 30.40 in 10.0 mi West 6.9 mph - N/A   Clear
8:35 AM 32.4 °F 24.0 °F 5.7 °F 33% 30.39 in 10.0 mi SW 10.4 mph 16.1 mph N/A   Clear
11:15 AM 44.6 °F 38.1 °F 5.7 °F 20% 30.33 in 10.0 mi SW 13.8 mph 21.9 mph N/A   Clear
11:35 AM 45.7 °F 39.1 °F 5.7 °F 19% 30.32 in 10.0 mi SSW 15.0 mph 23.0 mph N/A   Clear
11:55 AM 44.4 °F 36.1 °F 6.8 °F 21% 30.30 in 10.0 mi SSW 20.7 mph 28.8 mph N/A   Clear
12:15 PM 45.3 °F 37.1 °F 6.8 °F 21% 30.29 in 10.0 mi SW 21.9 mph 26.5 mph N/A   Clear
12:35 PM 46.9 °F - 6.6 °F 19% 30.28 in 10.0 mi SSW 18.4 mph 31.1 mph N/A   Clear
12:55 PM 47.1 °F - 5.9 °F 19% 30.27 in 10.0 mi SSW 13.8 mph 27.6 mph N/A   Clear
1:15 PM 47.3 °F - 6.3 °F 19% 30.26 in 10.0 mi SW 15.0 mph 24.2 mph N/A   Clear
1:35 PM 46.4 °F 38.3 °F 5.7 °F 19% 30.25 in 10.0 mi South 23.0 mph 34.5 mph N/A   Clear
1:55 PM 46.2 °F 38.5 °F 6.3 °F 20% 30.25 in 10.0 mi SSW 20.7 mph 34.5 mph N/A   Clear
2:15 PM 47.5 °F - 6.4 °F 19% 30.23 in 10.0 mi SSW 17.3 mph 31.1 mph N/A   Clear
2:35 PM 49.3 °F - 6.6 °F 18% 30.23 in 10.0 mi SW 15.0 mph 20.7 mph N/A   Clear
2:55 PM 49.6 °F - 6.3 °F 17% 30.23 in 10.0 mi SW 15.0 mph 24.2 mph N/A   Clear
3:15 PM 48.6 °F - 6.4 °F 18% 30.23 in 10.0 mi WSW 17.3 mph 24.2 mph N/A   Clear
3:35 PM 48.2 °F - 5.7 °F 18% 30.23 in 10.0 mi WSW 16.1 mph 29.9 mph N/A   Clear
3:55 PM 47.5 °F - 5.9 °F 18% 30.23 in 10.0 mi WSW 21.9 mph 29.9 mph N/A   Clear
4:15 PM 45.7 °F 37.8 °F 5.5 °F 19% 30.22 in 10.0 mi WSW 20.7 mph 32.2 mph N/A   Clear
4:35 PM 44.6 °F 35.9 °F 5.2 °F 20% 30.22 in 10.0 mi WSW 23.0 mph 29.9 mph N/A   Clear
4:55 PM 43.7 °F 35.2 °F 4.5 °F 20% 30.21 in 10.0 mi West 20.7 mph 32.2 mph N/A   Clear
5:15 PM 43.0 °F 34.8 °F 3.9 °F 20% 30.22 in 10.0 mi WSW 18.4 mph 32.2 mph N/A   Clear
5:35 PM 41.4 °F 33.0 °F 4.6 °F 22% 30.22 in 10.0 mi WSW 17.3 mph 26.5 mph N/A   Clear
5:55 PM 40.3 °F 31.9 °F 5.4 °F 24% 30.21 in 10.0 mi WSW 16.1 mph 29.9 mph N/A   Clear
6:15 PM 38.8 °F 29.1 °F 5.5 °F 25% 30.21 in 10.0 mi WSW 19.6 mph 24.2 mph N/A   Clear
6:35 PM 39.2 °F 30.5 °F 5.0 °F 24% 30.22 in 10.0 mi WSW 16.1 mph 25.3 mph N/A   Clear
6:55 PM 38.8 °F 31.2 °F 5.0 °F 24% 30.21 in 10.0 mi WSW 12.7 mph 21.9 mph N/A   Clear
7:15 PM 38.8 °F 30.8 °F 4.3 °F 24% 30.22 in 10.0 mi WSW 13.8 mph - N/A   Clear
7:35 PM 39.2 °F 30.8 °F 3.4 °F 22% 30.22 in 10.0 mi WSW 15.0 mph 18.4 mph N/A   Clear
7:55 PM 38.7 °F 30.1 °F 2.8 °F 22% 30.21 in 10.0 mi WSW 15.0 mph 19.6 mph N/A   Clear
8:15 PM 39.0 °F 31.4 °F 2.3 °F 22% 30.21 in 10.0 mi SW 12.7 mph 19.6 mph N/A   Clear
8:35 PM 39.0 °F 31.0 °F 1.9 °F 21% 30.20 in 10.0 mi WSW 13.8 mph 19.6 mph N/A   Clear
8:55 PM 39.4 °F 32.7 °F 1.4 °F 20% 30.20 in 10.0 mi West 10.4 mph - N/A   Clear
9:15 PM 38.1 °F 30.7 °F 1.8 °F 22% 30.20 in 10.0 mi WSW 11.5 mph 18.4 mph N/A   Clear
9:35 PM 37.9 °F 29.2 °F 1.8 °F 22% 30.20 in 10.0 mi WSW 15.0 mph 18.4 mph N/A   Clear
9:55 PM 37.8 °F 30.2 °F 1.9 °F 22% 30.19 in 10.0 mi SW 11.5 mph 18.4 mph N/A   Clear
10:15 PM 37.4 °F 29.8 °F 1.9 °F 23% 30.19 in 10.0 mi WSW 11.5 mph - N/A   Clear
10:35 PM 35.8 °F 28.3 °F 2.5 °F 25% 30.19 in 10.0 mi West 10.4 mph - N/A   Clear
10:55 PM 37.0 °F 29.3 °F 2.5 °F 23% 30.19 in 10.0 mi WSW 11.5 mph - N/A   Clear
11:15 PM 37.6 °F 29.1 °F 2.3 °F 23% 30.17 in 10.0 mi West 13.8 mph 21.9 mph N/A   Clear
11:35 PM 36.0 °F 28.5 °F 2.7 °F 25% 30.17 in 10.0 mi WSW 10.4 mph - N/A   Clear
11:55 PM 35.8 °F 26.9 °F 2.1 °F 24% 30.17 in 10.0 mi West 13.8 mph 17.3 mph N/A   Clear